Time,TemperatureF,DewpointF,PressureIn,WindDirection,WindDirectionDegrees,WindSpeedMPH,WindSpeedGustMPH,Humidity,HourlyPrecipIn,Conditions,Clouds,dailyrainin,SoftwareType,DateUTC
2013-11-28 00:02:00,-999.0,-99.9,30.31,North,-999,-999.0,-999.0,-999,0.00,,,0.00,weatherlink.com 1.10,2013-11-28 05:02:00,
2013-11-28 00:17:00,-999.0,-99.9,30.30,North,-999,-999.0,-999.0,-999,0.00,,,0.00,weatherlink.com 1.10,2013-11-28 05:17:00,
2013-11-28 00:31:00,-999.0,-99.9,30.30,North,-999,-999.0,-999.0,-999,0.00,,,0.00,weatherlink.com 1.10,2013-11-28 05:31:00,
2013-11-28 00:46:00,-999.0,-99.9,30.30,North,-999,-999.0,-999.0,-999,0.00,,,0.00,weatherlink.com 1.10,2013-11-28 05:46:00,
2013-11-28 01:17:00,23.0,17.0,30.30,WSW,238,4.0,6.0,78,0.00,,,0.00,weatherlink.com 1.10,2013-11-28 06:17:00,
2013-11-28 01:31:00,23.0,17.0,30.30,WSW,249,4.0,6.0,78,0.00,,,0.00,weatherlink.com 1.10,2013-11-28 06:31:00,
2013-11-28 01:48:00,23.2,17.0,30.31,West,280,3.0,5.0,78,0.00,,,0.00,weatherlink.com 1.10,2013-11-28 06:48:00,
2013-11-28 02:04:00,23.1,17.0,30.30,WSW,250,0.0,5.0,78,0.00,,,0.00,weatherlink.com 1.10,2013-11-28 07:04:00,
2013-11-28 02:18:00,23.1,17.0,30.31,SW,235,2.0,5.0,78,0.00,,,0.00,weatherlink.com 1.10,2013-11-28 07:18:00,
2013-11-28 02:33:00,23.0,17.0,30.32,West,277,3.0,7.0,78,0.00,,,0.00,weatherlink.com 1.10,2013-11-28 07:33:00,
2013-11-28 02:49:00,22.9,17.0,30.32,West,275,1.0,4.0,78,0.00,,,0.00,weatherlink.com 1.10,2013-11-28 07:49:00,
2013-11-28 03:03:00,22.7,17.0,30.33,West,275,2.0,3.0,79,0.00,,,0.00,weatherlink.com 1.10,2013-11-28 08:03:00,
2013-11-28 03:20:00,22.6,17.0,30.33,West,275,0.0,3.0,79,0.00,,,0.00,weatherlink.com 1.10,2013-11-28 08:20:00,
2013-11-28 03:34:00,22.6,17.0,30.34,SW,220,1.0,4.0,80,0.00,,,0.00,weatherlink.com 1.10,2013-11-28 08:34:00,
2013-11-28 03:49:00,22.6,17.0,30.33,WSW,237,3.0,4.0,80,0.00,,,0.00,weatherlink.com 1.10,2013-11-28 08:49:00,
2013-11-28 04:05:00,22.7,17.0,30.34,SW,235,1.0,5.0,80,0.00,,,0.00,weatherlink.com 1.10,2013-11-28 09:05:00,
2013-11-28 04:19:00,22.7,17.0,30.33,SW,235,1.0,4.0,80,0.00,,,0.00,weatherlink.com 1.10,2013-11-28 09:19:00,
2013-11-28 04:35:00,22.8,17.0,30.33,SW,229,2.0,6.0,79,0.00,,,0.00,weatherlink.com 1.10,2013-11-28 09:35:00,
2013-11-28 04:52:00,22.8,17.0,30.34,SSW,201,1.0,7.0,79,0.00,,,0.00,weatherlink.com 1.10,2013-11-28 09:52:00,
2013-11-28 05:06:00,23.0,18.0,30.34,South,182,4.0,5.0,80,0.00,,,0.00,weatherlink.com 1.10,2013-11-28 10:06:00,
2013-11-28 05:21:00,23.2,18.0,30.34,WSW,239,4.0,6.0,79,0.00,,,0.00,weatherlink.com 1.10,2013-11-28 10:21:00,
2013-11-28 05:37:00,23.2,18.0,30.34,SSW,207,3.0,6.0,79,0.00,,,0.00,weatherlink.com 1.10,2013-11-28 10:37:00,
2013-11-28 05:51:00,23.3,18.0,30.34,SW,215,3.0,6.0,79,0.00,,,0.00,weatherlink.com 1.10,2013-11-28 10:51:00,
2013-11-28 06:07:00,23.3,18.0,30.35,SSW,211,6.0,8.0,79,0.00,,,0.00,weatherlink.com 1.10,2013-11-28 11:07:00,
2013-11-28 06:22:00,23.4,18.0,30.35,SSW,213,3.0,8.0,79,0.00,,,0.00,weatherlink.com 1.10,2013-11-28 11:22:00,
2013-11-28 06:37:00,23.5,18.0,30.36,SSW,209,5.0,5.0,79,0.00,,,0.00,weatherlink.com 1.10,2013-11-28 11:37:00,
2013-11-28 06:53:00,23.6,18.0,30.36,SSW,205,5.0,7.0,79,0.00,,,0.00,weatherlink.com 1.10,2013-11-28 11:53:00,
2013-11-28 07:07:00,23.8,18.0,30.36,SSW,197,7.0,7.0,79,0.00,,,0.00,weatherlink.com 1.10,2013-11-28 12:07:00,
2013-11-28 07:23:00,23.9,18.0,30.36,SSW,206,6.0,8.0,79,0.00,,,0.00,weatherlink.com 1.10,2013-11-28 12:23:00,
2013-11-28 07:38:00,24.0,18.0,30.36,SW,227,2.0,8.0,79,0.00,,,0.00,weatherlink.com 1.10,2013-11-28 12:38:00,
2013-11-28 07:53:00,24.1,18.0,30.37,SSW,198,4.0,8.0,78,0.00,,,0.00,weatherlink.com 1.10,2013-11-28 12:53:00,
2013-11-28 08:08:00,24.2,18.0,30.37,SSW,199,6.0,7.0,78,0.00,,,0.00,weatherlink.com 1.10,2013-11-28 13:08:00,
2013-11-28 08:24:00,24.4,18.0,30.36,South,181,6.0,11.0,77,0.00,,,0.00,weatherlink.com 1.10,2013-11-28 13:24:00,
2013-11-28 08:40:00,24.5,18.0,30.36,SSW,198,4.0,7.0,77,0.00,,,0.00,weatherlink.com 1.10,2013-11-28 13:40:00,
2013-11-28 08:54:00,24.7,18.0,30.37,South,191,8.0,10.0,76,0.00,,,0.00,weatherlink.com 1.10,2013-11-28 13:54:00,
2013-11-28 09:09:00,24.8,18.0,30.37,SSW,203,5.0,10.0,76,0.00,,,0.00,weatherlink.com 1.10,2013-11-28 14:09:00,
2013-11-28 09:26:00,25.1,18.0,30.36,South,188,7.0,12.0,74,0.00,,,0.00,weatherlink.com 1.10,2013-11-28 14:26:00,
2013-11-28 09:41:00,25.3,18.0,30.36,SW,221,6.0,15.0,73,0.00,,,0.00,weatherlink.com 1.10,2013-11-28 14:41:00,
2013-11-28 09:56:00,25.6,18.0,30.36,WSW,242,5.0,11.0,73,0.00,,,0.00,weatherlink.com 1.10,2013-11-28 14:56:00,
2013-11-28 10:12:00,25.8,18.0,30.36,South,175,9.0,14.0,72,0.00,,,0.00,weatherlink.com 1.10,2013-11-28 15:12:00,
2013-11-28 10:26:00,26.0,18.0,30.36,SSW,204,7.0,13.0,71,0.00,,,0.00,weatherlink.com 1.10,2013-11-28 15:26:00,
2013-11-28 10:42:00,26.4,18.0,30.36,WSW,244,5.0,12.0,71,0.00,,,0.00,weatherlink.com 1.10,2013-11-28 15:42:00,
2013-11-28 10:57:00,26.7,17.0,30.34,South,179,2.0,16.0,67,0.00,,,0.00,weatherlink.com 1.10,2013-11-28 15:57:00,
2013-11-28 11:12:00,26.9,17.0,30.34,SW,219,9.0,17.0,65,0.00,,,0.00,weatherlink.com 1.10,2013-11-28 16:12:00,
2013-11-28 11:28:00,26.9,16.0,30.34,SSW,211,5.0,22.0,64,0.00,,,0.00,weatherlink.com 1.10,2013-11-28 16:28:00,
2013-11-28 11:42:00,27.1,16.0,30.32,SW,222,9.0,14.0,64,0.00,,,0.00,weatherlink.com 1.10,2013-11-28 16:42:00,
2013-11-28 11:57:00,27.7,17.0,30.32,WSW,255,10.0,16.0,64,0.00,,,0.00,weatherlink.com 1.10,2013-11-28 16:57:00,
2013-11-28 12:14:00,28.2,17.0,30.31,SW,234,6.0,17.0,63,0.00,,,0.00,weatherlink.com 1.10,2013-11-28 17:14:00,
2013-11-28 12:28:00,28.7,17.0,30.31,SW,225,6.0,17.0,62,0.00,,,0.00,weatherlink.com 1.10,2013-11-28 17:28:00,
2013-11-28 12:43:00,29.0,17.0,30.30,SSW,205,7.0,14.0,62,0.00,,,0.00,weatherlink.com 1.10,2013-11-28 17:43:00,
2013-11-28 12:59:00,29.6,18.0,30.30,SSW,208,6.0,15.0,63,0.00,,,0.00,weatherlink.com 1.10,2013-11-28 17:59:00,
2013-11-28 13:13:00,30.0,18.0,30.30,SSW,205,6.0,15.0,61,0.00,,,0.00,weatherlink.com 1.10,2013-11-28 18:13:00,
2013-11-28 13:30:00,30.2,18.0,30.29,South,174,7.0,10.0,61,0.00,,,0.00,weatherlink.com 1.10,2013-11-28 18:30:00,
2013-11-28 13:46:00,30.3,18.0,30.28,SW,225,5.0,12.0,61,0.00,,,0.00,weatherlink.com 1.10,2013-11-28 18:46:00,
2013-11-28 14:00:00,30.6,18.0,30.27,SSW,207,9.0,15.0,60,0.00,,,0.00,weatherlink.com 1.10,2013-11-28 19:00:00,
2013-11-28 14:15:00,30.9,19.0,30.27,South,175,11.0,11.0,62,0.00,,,0.00,weatherlink.com 1.10,2013-11-28 19:15:00,
2013-11-28 14:31:00,32.4,20.0,30.27,SW,227,6.0,14.0,60,0.00,,,0.00,weatherlink.com 1.10,2013-11-28 19:31:00,
2013-11-28 14:46:00,33.5,19.0,30.27,SSW,194,8.0,16.0,56,0.00,,,0.00,weatherlink.com 1.10,2013-11-28 19:46:00,
2013-11-28 15:02:00,33.8,19.0,30.27,SW,224,10.0,15.0,56,0.00,,,0.00,weatherlink.com 1.10,2013-11-28 20:02:00,
2013-11-28 15:16:00,34.0,19.0,30.27,SW,225,9.0,13.0,55,0.00,,,0.00,weatherlink.com 1.10,2013-11-28 20:16:00,
2013-11-28 15:31:00,34.4,19.0,30.29,SSW,194,9.0,14.0,54,0.00,,,0.00,weatherlink.com 1.10,2013-11-28 20:31:00,
2013-11-28 15:46:00,34.4,19.0,30.29,West,279,7.0,16.0,53,0.00,,,0.00,weatherlink.com 1.10,2013-11-28 20:46:00,
2013-11-28 16:01:00,34.5,19.0,30.29,WSW,238,7.0,15.0,54,0.00,,,0.00,weatherlink.com 1.10,2013-11-28 21:01:00,
2013-11-28 16:17:00,34.4,20.0,30.30,SSW,194,7.0,14.0,55,0.00,,,0.00,weatherlink.com 1.10,2013-11-28 21:17:00,
2013-11-28 16:32:00,34.3,20.0,30.31,West,272,9.0,18.0,55,0.00,,,0.00,weatherlink.com 1.10,2013-11-28 21:32:00,
2013-11-28 16:47:00,34.0,19.0,30.32,WSW,248,10.0,13.0,55,0.00,,,0.00,weatherlink.com 1.10,2013-11-28 21:47:00,
2013-11-28 17:03:00,33.5,20.0,30.32,SW,231,6.0,11.0,57,0.00,,,0.00,weatherlink.com 1.10,2013-11-28 22:03:00,
2013-11-28 17:18:00,33.0,20.0,30.33,SW,217,3.0,10.0,59,0.00,,,0.00,weatherlink.com 1.10,2013-11-28 22:18:00,
2013-11-28 17:33:00,32.7,20.0,30.34,West,275,6.0,10.0,60,0.00,,,0.00,weatherlink.com 1.10,2013-11-28 22:33:00,
2013-11-28 17:49:00,32.1,20.0,30.36,WSW,250,2.0,6.0,61,0.00,,,0.00,weatherlink.com 1.10,2013-11-28 22:49:00,
2013-11-28 18:04:00,31.5,20.0,30.36,SW,231,4.0,6.0,62,0.00,,,0.00,weatherlink.com 1.10,2013-11-28 23:04:00,
2013-11-28 18:19:00,30.8,20.0,30.37,West,265,1.0,4.0,64,0.00,,,0.00,weatherlink.com 1.10,2013-11-28 23:19:00,
2013-11-28 18:35:00,30.0,20.0,30.37,West,264,1.0,3.0,67,0.00,,,0.00,weatherlink.com 1.10,2013-11-28 23:35:00,
2013-11-28 18:50:00,30.1,21.0,30.38,West,264,2.0,4.0,68,0.00,,,0.00,weatherlink.com 1.10,2013-11-28 23:50:00,
2013-11-28 19:04:00,30.3,21.0,30.38,West,264,3.0,4.0,69,0.00,,,0.00,weatherlink.com 1.10,2013-11-29 00:04:00,
2013-11-28 19:21:00,30.7,22.0,30.39,SSW,203,2.0,5.0,69,0.00,,,0.00,weatherlink.com 1.10,2013-11-29 00:21:00,
2013-11-28 19:36:00,31.0,22.0,30.39,SSW,204,2.0,4.0,68,0.00,,,0.00,weatherlink.com 1.10,2013-11-29 00:36:00,
2013-11-28 19:52:00,31.1,22.0,30.40,SSW,205,2.0,5.0,68,0.00,,,0.00,weatherlink.com 1.10,2013-11-29 00:52:00,
2013-11-28 20:06:00,31.3,22.0,30.40,SW,215,1.0,5.0,68,0.00,,,0.00,weatherlink.com 1.10,2013-11-29 01:06:00,
2013-11-28 20:21:00,31.4,22.0,30.40,SW,221,0.0,4.0,69,0.00,,,0.00,weatherlink.com 1.10,2013-11-29 01:21:00,
2013-11-28 20:36:00,31.4,22.0,30.41,SW,235,3.0,5.0,69,0.00,,,0.00,weatherlink.com 1.10,2013-11-29 01:36:00,
2013-11-28 20:51:00,31.4,23.0,30.41,WSW,244,3.0,5.0,70,0.00,,,0.00,weatherlink.com 1.10,2013-11-29 01:51:00,
2013-11-28 21:06:00,31.1,22.0,30.42,WSW,248,3.0,4.0,70,0.00,,,0.00,weatherlink.com 1.10,2013-11-29 02:06:00,
2013-11-28 21:22:00,30.4,22.0,30.42,WSW,248,1.0,5.0,71,0.00,,,0.00,weatherlink.com 1.10,2013-11-29 02:22:00,
2013-11-28 21:39:00,29.8,22.0,30.43,West,268,1.0,5.0,72,0.00,,,0.00,weatherlink.com 1.10,2013-11-29 02:39:00,
2013-11-28 21:52:00,29.5,22.0,30.43,West,259,0.0,5.0,72,0.00,,,0.00,weatherlink.com 1.10,2013-11-29 02:52:00,
2013-11-28 22:08:00,28.5,21.0,30.44,West,259,0.0,2.0,73,0.00,,,0.00,weatherlink.com 1.10,2013-11-29 03:08:00,
2013-11-28 22:23:00,27.9,21.0,30.44,West,259,2.0,4.0,75,0.00,,,0.00,weatherlink.com 1.10,2013-11-29 03:23:00,
2013-11-28 22:39:00,27.8,21.0,30.44,West,264,2.0,4.0,75,0.00,,,0.00,weatherlink.com 1.10,2013-11-29 03:39:00,
2013-11-28 22:53:00,27.4,21.0,30.45,West,267,1.0,2.0,76,0.00,,,0.00,weatherlink.com 1.10,2013-11-29 03:53:00,
2013-11-28 23:08:00,26.3,20.0,30.45,West,267,0.0,2.0,76,0.00,,,0.00,weatherlink.com 1.10,2013-11-29 04:08:00,
2013-11-28 23:23:00,24.9,19.0,30.46,West,267,0.0,0.0,78,0.00,,,0.00,weatherlink.com 1.10,2013-11-29 04:23:00,
2013-11-28 23:40:00,24.3,19.0,30.47,West,267,0.0,0.0,81,0.00,,,0.00,weatherlink.com 1.10,2013-11-29 04:40:00,
2013-11-28 23:55:00,23.4,19.0,30.48,West,267,0.0,0.0,83,0.00,,,0.00,weatherlink.com 1.10,2013-11-29 04:55:00,